Wind_Speed
12 6 3 2 2 4 6 4 7 9 9 9 11 10 10 10 11 11 10 9 7 5 2 1 3 5 10 11 10 9 8 9 11 11 12 13 12 10 8 10 9 7 5
13 5 3 3 3 6 5 5 7 8 9 11 11 10 10 11 11 12 13 13 9 8 9 6 5 5 5 8 8 8 9 11 13 13 14 15 12 10 7 5 4 3 2
13 10 9 4 3 4 5 5 5 7 8 10 12 12 12 13 13 14 14 12 10 10 8 7 9 5 2 3 5 5 6 7 8 9 9 11 9 6 5 5 3 2 3
12 12 8 4 2 2 4 4 4 5 7 8 10 11 12 13 15 15 14 14 13 12 10 8 7 6 6 3 1 1 1 3 4 5 7 11 10 5 6 4 4 2 1
11 10 8 6 3 1 3 3 2 3 4 6 8 9 10 11 14 14 15 15 15 14 14 12 11 10 8 6 5 6 5 3 4 3 6 7 6 5 5 3 3 1 1
9 8 8 6 5 2 2 3 3 2 2 4 5 7 8 8 10 12 12 13 12 13 13 13 12 12 12 9 8 7 5 6 3 3 3 3 3 3 4 5 3 2 4
11 10 9 7 4 3 7 6 6 5 2 1 3 4 5 6 9 10 10 9 9 10 11 12 12 12 11 9 8 6 5 5 4 5 3 2 2 3 5 4 4 4 4
9 8 7 5 3 4 12 7 11 9 6 4 2 1 2 4 7 9 10 9 8 7 8 8 9 10 10 9 8 6 6 6 7 7 7 4 3 1 1 2 5 5 4
10 9 7 10 8 5 16 12 15 12 11 8 6 3 1 1 3 6 8 8 8 8 7 7 7 7 8 8 7 6 6 6 8 8 8 9 8 6 3 1 3 4 6
14 12 14 8 12 12 10 11 19 14 13 10 7 6 4 3 2 2 4 6 6 7 8 7 6 5 5 6 7 5 5 7 7 6 6 6 8 10 8 5 6 7 8
15 14 15 19 21 22 12 16 16 15 13 10 7 5 5 5 3 2 2 1 1 4 7 8 7 6 6 6 6 4 4 4 5 5 5 7 10 11 9 7 6 4 6
18 15 11 15 17 20 20 19 17 16 16 12 8 5 5 6 5 5 6 6 4 1 3 4 5 5 7 7 7 6 4 4 3 3 3 7 10 9 8 7 7 6 4
19 19 16 15 15 15 18 22 23 18 16 12 7 6 5 6 5 5 5 7 6 1 2 1 3 6 7 8 8 8 7 7 6 5 6 8 8 7 7 9 7 7 7
23 20 19 16 6 6 7 11 18 14 16 10 9 7 5 6 6 5 6 7 5 2 2 4 6 6 6 7 8 9 8 8 7 7 8 9 8 8 8 8 9 7 7
14 12 10 4 4 4 9 13 12 13 10 12 7 7 5 6 6 6 5 5 5 5 7 6 5 5 4 4 5 6 6 6 7 9 10 9 8 8 8 10 10 9 8
7 5 5 5 6 7 11 11 14 10 11 7 8 6 5 5 5 6 6 5 7 8 7 4 6 6 6 6 5 5 5 6 8 10 9 8 8 7 7 8 7 6 5
7 7 7 6 7 7 7 7 8 8 6 4 4 4 6 6 6 5 6 7 7 9 6 5 6 5 4 5 6 6 7 7 10 12 9 7 8 9 7 7 8 8 6
8 10 11 10 10 9 9 8 8 6 6 7 8 6 6 5 5 6 6 7 8 9 6 5 3 1 2 3 4 5 5 7 9 10 11 8 6 12 8 6 7 8 8
13 13 14 14 13 11 11 12 12 11 10 9 9 8 7 6 6 7 7 9 10 8 4 3 2 2 3 4 6 7 7 7 9 10 10 10 10 8 7 7 9 10 10
17 19 18 17 18 20 22 21 19 17 15 14 12 10 9 7 7 10 12 11 8 6 6 5 4 2 2 1 2 4 5 6 7 9 9 9 9 9 9 10 11 12 12
21 20 19 20 20 21 19 16 13 11 10 8 8 7 7 7 7 9 7 8 6 6 6 6 6 4 5 6 6 5 5 5 8 11 11 11 10 10 10 12 14 14 14
20 20 19 19 19 17 15 12 9 7 5 5 4 4 4 4 5 7 8 8 8 9 10 12 12 13 14 14 14 14 13 13 15 16 16 16 17 18 18 19 19 19 18
19 20 20 19 18 15 13 9 7 8 6 6 9 12 13 10 8 9 10 10 11 12 12 13 15 17 17 19 17 16 21 18 18 17 18 20 22 23 23 23 21 21 22
18 19 19 18 17 16 14 12 10 8 9 9 8 10 12 14 16 14 12 12 15 16 17 18 15 14 15 16 16 18 18 20 18 19 20 22 24 26 26 26 25 25 25
18 20 18 16 17 18 17 15 13 12 10 8 10 11 13 13 18 19 16 12 9 12 13 13 14 13 15 15 17 19 19 20 22 25 28 29 28 27 26 26 25 23 23
19 20 18 18 17 17 16 14 12 10 11 13 13 12 8 8 12 12 11 11 11 12 12 12 13 14 16 19 21 23 26 28 27 25 23 21 20 20 20 20 20 20 20
Wind_Direction
192 171 135 123 32 10 8 38 42 33 33 36 49 48 52 49 47 45 44 40 35 43 30 284 339 219 208 211 210 213 225 233 224 211 222 226 240 250 265 281 283 288 308
164 163 132 109 38 18 39 56 50 38 38 44 56 59 61 59 59 57 54 52 49 54 54 55 66 112 168 196 215 228 231 235 233 242 228 219 220 242 246 267 276 288 296
151 175 169 128 51 32 42 56 48 44 49 55 60 67 69 69 65 59 54 52 48 52 62 73 80 86 148 212 243 244 245 242 241 250 219 211 225 211 226 245 222 257 321
166 166 157 155 127 55 42 48 42 44 57 66 63 65 68 69 68 64 60 59 55 56 57 64 80 87 88 108 142 217 239 236 224 231 228 217 205 218 217 231 245 254 11
178 174 173 176 156 128 27 27 14 37 55 69 67 67 70 72 69 65 65 64 64 62 62 62 67 66 66 69 79 87 73 88 113 170 201 206 225 195 242 269 267 271 18
203 190 192 198 174 188 291 324 312 326 33 70 71 72 73 72 76 67 59 58 58 63 67 65 66 67 65 68 69 68 82 101 111 141 184 210 237 236 287 293 252 241 307
207 201 207 201 126 7 313 302 290 277 287 81 69 62 72 73 70 66 65 57 50 58 62 62 58 60 62 57 55 56 69 92 138 125 152 213 275 303 299 277 217 291 295
205 209 225 202 179 320 244 282 279 265 253 224 191 90 52 68 69 59 60 67 68 74 74 64 56 49 49 47 38 36 50 61 66 88 94 85 63 6 298 269 277 295 297
205 203 232 223 178 112 178 262 278 248 242 232 216 210 178 86 76 60 63 65 68 70 65 56 52 43 37 36 28 31 45 60 74 73 71 66 55 38 13 342 333 301 311
216 222 217 219 198 220 237 252 255 241 234 234 224 229 211 202 172 98 78 71 63 57 50 42 35 32 26 24 24 50 62 78 80 70 56 40 25 15 4 326 287 286 294
217 241 244 226 232 234 251 259 252 223 221 220 216 233 241 242 235 202 184 132 61 37 33 18 13 25 34 40 49 53 47 40 30 22 21 12 9 9 16 15 4 326 285
228 250 276 260 239 236 247 250 243 212 209 208 209 226 243 248 244 238 207 223 221 301 2 2 6 37 44 43 41 42 28 1 333 329 357 358 0 4 5 0 357 9 18
243 261 271 284 277 260 261 249 209 204 209 202 210 233 228 266 241 226 220 245 231 253 327 32 84 75 56 48 43 36 33 43 43 22 354 344 342 342 350 358 340 321 313
268 269 276 278 276 240 234 226 202 203 206 204 223 234 243 236 229 235 232 211 205 210 166 127 98 78 59 45 46 47 49 47 36 21 6 347 333 313 308 318 336 315 307
256 259 259 225 198 184 190 193 187 199 213 214 233 242 252 225 215 201 186 185 190 173 154 138 109 77 48 21 10 10 6 5 0 353 350 351 343 327 312 307 302 312 310
216 200 177 175 177 182 189 197 193 210 203 217 235 229 208 197 190 184 175 170 164 160 164 151 116 91 74 56 34 14 12 4 350 342 339 341 348 340 327 326 331 320 315
176 165 165 169 175 177 190 189 207 203 210 201 205 198 196 196 192 194 185 172 179 179 173 160 129 97 68 42 32 25 23 11 0 354 344 311 314 325 322 330 323 321 316
161 159 151 157 163 167 167 172 175 169 193 197 210 209 207 202 194 184 181 179 172 168 162 162 158 108 306 320 334 340 345 346 348 349 353 333 310 336 304 302 331 324 316
153 158 156 150 148 151 153 149 141 139 140 140 138 137 139 150 154 154 154 150 153 159 164 175 237 279 298 308 309 313 318 331 338 345 341 340 318 316 323 302 314 309 308
146 141 138 136 133 129 127 126 126 124 120 115 113 111 106 111 128 143 145 148 149 150 154 157 158 195 224 293 330 317 310 316 326 330 335 332 335 303 294 300 307 308 303
151 148 145 141 138 140 139 139 137 135 135 133 126 114 110 111 121 151 155 178 204 217 215 218 234 251 263 273 290 297 296 282 291 305 310 314 313 307 300 298 301 301 291
165 164 158 154 157 158 160 165 172 184 197 206 208 200 189 188 189 190 196 210 229 239 246 254 261 267 271 273 274 278 291 303 305 303 301 299 297 294 289 288 288 289 289
184 181 174 170 170 171 180 193 210 223 225 235 245 239 236 222 216 213 219 232 245 254 262 267 269 271 269 277 271 285 281 283 293 293 295 293 295 298 296 294 291 289 288
194 187 184 184 191 197 204 210 213 215 230 227 236 246 249 238 224 227 235 252 267 275 274 273 280 279 279 281 271 280 282 289 289 291 294 296 297 298 296 293 291 290 288
201 194 199 213 215 216 219 220 220 221 226 259 266 258 252 252 230 229 238 266 282 281 276 272 268 277 283 284 285 289 289 289 293 298 301 301 300 299 297 296 295 294 292
200 204 217 225 218 218 220 224 229 236 278 290 273 261 241 258 245 244 251 268 270 270 272 277 283 286 287 289 290 294 297 300 303 304 305 306 306 306 306 305 303 301 297
Height
1532 1535 1537 1540 1542 1544 1544 1544 1543 1542 1541 1540 1536 1535 1533 1532 1531 1530 1529 1529 1529 1527 1528 1528 1528 1528 1531 1534 1535 1537 1538 1539 1540 1541 1544 1544 1545 1546 1546 1546 1546 1546 1546
1529 1535 1538 1542 1544 1544 1544 1544 1544 1543 1543 1541 1538 1537 1536 1535 1534 1532 1531 1530 1531 1530 1530 1529 1529 1530 1532 1534 1535 1536 1537 1537 1539 1540 1540 1542 1541 1543 1544 1545 1545 1545 1546
1530 1534 1538 1541 1544 1545 1546 1546 1546 1546 1545 1543 1542 1541 1539 1538 1537 1535 1534 1533 1533 1533 1532 1532 1532 1533 1534 1535 1535 1536 1537 1537 1537 1538 1539 1541 1542 1543 1544 1545 1546 1545 1545
1533 1535 1538 1541 1544 1546 1547 1547 1548 1548 1547 1545 1544 1543 1543 1542 1539 1539 1538 1537 1537 1536 1536 1535 1535 1535 1535 1536 1536 1537 1537 1537 1537 1538 1540 1541 1542 1543 1544 1544 1545 1545 1545
1536 1537 1538 1541 1544 1546 1548 1548 1549 1549 1548 1546 1545 1545 1545 1544 1543 1543 1542 1541 1541 1540 1540 1539 1538 1538 1538 1537 1538 1538 1538 1538 1539 1539 1540 1541 1542 1543 1544 1544 1544 1545 1545
1538 1540 1540 1541 1542 1546 1548 1549 1550 1550 1549 1548 1547 1546 1546 1547 1545 1545 1545 1544 1545 1544 1544 1543 1542 1541 1541 1541 1541 1541 1540 1540 1541 1542 1543 1543 1543 1544 1545 1545 1545 1545 1546
1538 1538 1540 1541 1541 1544 1548 1551 1551 1551 1550 1549 1549 1548 1548 1548 1548 1547 1546 1547 1548 1548 1547 1546 1546 1545 1544 1544 1543 1543 1543 1543 1543 1543 1544 1544 1544 1544 1545 1545 1545 1545 1545
1536 1538 1540 1541 1540 1538 1544 1548 1551 1552 1551 1549 1549 1549 1549 1549 1550 1549 1549 1549 1549 1550 1550 1549 1548 1548 1547 1546 1546 1545 1545 1544 1544 1545 1546 1546 1546 1545 1544 1544 1545 1544 1544
1532 1533 1535 1540 1540 1537 1543 1546 1548 1549 1550 1549 1548 1549 1549 1550 1551 1552 1552 1551 1550 1550 1550 1550 1550 1549 1549 1548 1548 1548 1547 1547 1547 1547 1547 1547 1547 1546 1545 1544 1544 1545 1544
1531 1532 1533 1536 1537 1538 1541 1541 1544 1546 1548 1548 1548 1548 1549 1550 1551 1552 1553 1553 1552 1552 1551 1551 1551 1550 1550 1550 1550 1549 1549 1549 1549 1549 1549 1549 1548 1547 1545 1544 1543 1543 1543
1528 1529 1531 1533 1535 1534 1537 1538 1540 1543 1545 1547 1548 1548 1549 1550 1550 1550 1552 1553 1552 1552 1552 1552 1552 1551 1550 1550 1549 1550 1550 1550 1550 1550 1549 1549 1548 1547 1545 1544 1542 1541 1542
1524 1526 1527 1528 1531 1532 1534 1533 1537 1540 1542 1545 1546 1547 1548 1549 1549 1550 1551 1552 1552 1553 1553 1553 1552 1552 1551 1551 1551 1551 1551 1550 1550 1550 1550 1549 1548 1547 1546 1544 1543 1542 1542
1521 1523 1525 1525 1525 1527 1527 1529 1533 1538 1540 1543 1545 1546 1546 1546 1547 1548 1549 1550 1552 1552 1553 1553 1553 1553 1553 1552 1552 1552 1551 1551 1551 1550 1550 1549 1548 1547 1546 1544 1543 1543 1543
1520 1520 1520 1520 1521 1522 1524 1528 1532 1536 1539 1541 1543 1544 1545 1546 1546 1546 1547 1548 1550 1551 1553 1553 1554 1554 1554 1555 1554 1554 1553 1552 1552 1551 1550 1549 1547 1546 1546 1545 1544 1543 1543
1517 1516 1517 1518 1520 1521 1523 1527 1532 1536 1539 1540 1543 1543 1543 1543 1544 1545 1546 1547 1549 1551 1553 1555 1556 1555 1555 1555 1555 1555 1554 1553 1552 1551 1550 1548 1547 1546 1545 1544 1543 1543 1541
1514 1516 1518 1519 1521 1523 1525 1527 1531 1535 1537 1539 1541 1542 1542 1543 1544 1545 1546 1547 1549 1551 1554 1556 1556 1556 1555 1555 1556 1555 1554 1553 1552 1550 1549 1548 1546 1545 1544 1543 1542 1541 1540
1513 1514 1517 1519 1523 1524 1526 1528 1531 1534 1537 1539 1540 1541 1542 1543 1543 1544 1545 1547 1549 1551 1553 1555 1555 1556 1556 1556 1556 1556 1555 1553 1552 1550 1548 1547 1546 1544 1543 1542 1541 1540 1539
1513 1515 1516 1520 1522 1524 1526 1529 1531 1534 1537 1538 1539 1540 1541 1542 1543 1544 1544 1546 1549 1551 1553 1554 1555 1555 1556 1557 1556 1555 1554 1553 1551 1549 1547 1546 1545 1543 1541 1541 1540 1539 1538
1512 1516 1517 1518 1520 1523 1526 1528 1531 1535 1537 1539 1540 1541 1540 1541 1542 1543 1544 1546 1549 1551 1553 1554 1555 1556 1556 1556 1555 1554 1553 1552 1550 1549 1547 1545 1543 1542 1541 1540 1539 1538 1537
1514 1515 1517 1519 1521 1525 1528 1532 1535 1538 1540 1541 1542 1542 1542 1542 1542 1543 1545 1548 1550 1551 1552 1553 1553 1554 1554 1554 1553 1552 1551 1550 1549 1547 1545 1543 1542 1540 1540 1539 1537 1536 1535
1515 1517 1520 1522 1525 1528 1531 1535 1538 1541 1542 1543 1543 1543 1543 1543 1543 1545 1547 1549 1550 1551 1552 1552 1552 1552 1552 1551 1550 1549 1548 1547 1546 1544 1543 1541 1540 1538 1537 1536 1534 1532 1531
1516 1519 1521 1524 1527 1530 1533 1536 1538 1540 1542 1542 1543 1543 1543 1543 1544 1545 1546 1548 1549 1550 1549 1549 1549 1548 1548 1548 1547 1546 1545 1544 1542 1541 1540 1538 1537 1535 1533 1531 1529 1527 1526
1516 1519 1522 1525 1527 1530 1532 1534 1536 1537 1539 1539 1540 1540 1540 1542 1543 1543 1545 1545 1546 1546 1546 1546 1545 1544 1543 1543 1542 1543 1541 1540 1538 1536 1534 1533 1531 1528 1526 1523 1522 1520 1519
1517 1519 1521 1523 1526 1528 1531 1533 1535 1536 1536 1536 1536 1536 1537 1537 1539 1540 1542 1542 1543 1542 1542 1541 1540 1540 1539 1538 1537 1536 1535 1534 1532 1530 1528 1526 1524 1521 1518 1516 1514 1513 1511
1516 1518 1520 1523 1525 1527 1530 1532 1532 1533 1533 1533 1533 1533 1534 1534 1535 1537 1538 1539 1538 1538 1537 1537 1536 1536 1535 1534 1532 1531 1529 1527 1525 1523 1520 1517 1514 1512 1509 1508 1506 1505 1503
1514 1517 1520 1521 1523 1526 1527 1528 1529 1530 1530 1530 1529 1530 1530 1532 1531 1532 1533 1534 1534 1534 1534 1533 1533 1532 1530 1529 1527 1524 1522 1520 1517 1515 1512 1509 1507 1505 1503 1501 1499 1497 1496